Regional Weather Roundup
Issued by NWS State College, PA

Home | Current Version | Previous Version | Graphics & Text | Print | Product List | Glossary Off
Versions: 1 2 3 4 5 6 7 8 9 10 11 12 13 14 15 16 17 18 19 20 21 22 23 24 25 26 27 28 29 30 31 32 33 34 35 36 37 38 39 40 41 42 43 44 45 46 47 48 49 50

000
ASUS41 KCTP 010303
RWRCTP

REGIONAL WEATHER ROUNDUP
NATIONAL WEATHER SERVICE STATE COLLEGE PA
1100 PM EDT FRI SEP 30 2016

Note: "fair" indicates few or no clouds below 12,000 feet with no
significant weather and/or obstructions to visibility.

* = STATION THAT DOES NOT REPORT PRECIPITATION /E.G. RAIN...SNOW...ETC/
    THUNDER OR FOG.

PAZ002>004-007>009-013>016-020>023-029>032-010400-
WESTERN PENNSYLVANIA

CITY           SKY/WX    TMP DP  RH WIND       PRES   REMARKS
ERIE           CLOUDY    62  55  77 E7        30.12F
MEADVILLE      CLOUDY    57  52  83 E8        30.12F
FRANKLIN*        N/A     55  50  82 E13G20    30.14S
NEW CASTLE     CLOUDY    58  55  90 VRB6      30.11F
BEAVER COUNTY  NOT AVBL
BUTLER*        MOCLDY    55  52  88 E8        30.13F
PITTSBURGH INT MOCLDY    57  56  96 E7        30.10S
PITTSBURGH     LGT RAIN  57  54  89 E9        30.10R
INDIANA*       CLOUDY    57  55  94 E9G16     30.16F
LATROBE        LGT RAIN  57  57 100 CALM      30.12R
WASHINGTON CO* CLOUDY    57  54  88 E6        30.09S
$$

PAZ004>006-010>012-017>019-024>028-033>037-041-042-045-046-049>053-010400-
CENTRAL PENNSYLVANIA

CITY           SKY/WX    TMP DP  RH WIND       PRES   REMARKS
BRADFORD       CLOUDY    54  53  97 E10       30.20F
DUBOIS         CLOUDY    54  51  90 E14G22    30.16F
CLEARFIELD     CLOUDY    54  54 100 NE8       30.20S FOG
JOHNSTOWN      CLOUDY    53  53 100 E10       30.15F FOG
ALTOONA        CLOUDY    54  54 100 NE7       30.18F FOG
STATE COLLEGE  CLOUDY    55  54  97 NE7       30.21S FOG
WILLIAMSPORT   CLOUDY    57  56  96 E3        30.22F
SELINSGROVE    CLOUDY    57  57 100 N5        30.23F
FT INDIANTOWN  CLOUDY    57  54  87 E14G23    30.20F
CAPITAL CITY   CLOUDY    60  55  83 E10       30.21R
HARRISBURG     CLOUDY    60  57  89 E5        30.20S
YORK           CLOUDY    59  58  96 E12       30.18S
$$

PAZ038>040-043-044-047-048-054-055-060>062-067>071-010400-
EASTERN PENNSYLVANIA

CITY           SKY/WX    TMP DP  RH WIND       PRES   REMARKS
SCRANTON       CLOUDY    55  51  86 NE8       30.25F
MOUNT POCONO   NOT AVBL
ALLENTOWN      CLOUDY    57  53  86 NE12      30.24F
QUAKERTOWN*    CLOUDY    55  55 100 NE7       30.24F
READING        CLOUDY    58  54  86 VRB7      30.21F FOG
LANCASTER      CLOUDY    59  57  93 E14       30.21S
COATESVILLE    CLOUDY    57  55  94 E9G21     30.21F
POTTSTOWN      CLOUDY    57  55  93 NE8       30.23F
BLUE BELL      CLOUDY    55  55 100 NE8       30.21S
DOYLESTOWN     CLOUDY    57  56  96 NE9G20    30.22S
WILLOW GROVE   NOT AVBL
NORTH PHILA    CLOUDY    61  58  90 NE15      30.22S
PHILADELPHIA   CLOUDY    62  57  83 NE10G22   30.20S
$$



USA.gov is the U.S. government's official web portal to all federal, state and local government web resources and services.